Retour au catalogue

DELTA 1 DEB

ActifSSO
NORAD 40763·DEBRIS·🇺🇸 United States

Lancé Jul 29, 1976 depuis Vandenberg Space Force Base

Loading…

Prochains Passages (prochaines 24 heures)

TLE

FraisSource: Space-Track

Époque: Sep 14, 2026, 15:48 UTC

1 40763U 76077GG  26257.65854992  .00000240  00000-0  16535-2 0  9995
2 40763 101.5758 235.4926 0034530  22.8937 337.3670 12.59308985103380

Suivez DELTA 1 DEB en temps réel avec AllMySat

Download on the App Store